Location: Errabaliem
(16.8108°N, 80.4255°E)
Time: 11:09:30
(UTC+00:00)

NOAA 6 - Pass Details

Date: 05 August 2024
Orbit: 769 x 783 km, 98.6° (Epoch: 11 September)

Event Time Altitude Azimuth Distance (km) Brightness Sun altitude
Rises 13:28:38 0° 171° (S) 3,254 7.0 -5.3°
Reaches altitude 10° 13:30:57 10° 173° (S) 2,325 6.2 -5.9°
Maximum altitude 13:36:04 74° 258° (WSW) 809 4.3 -7.0°
Drops below altitude 10° 13:41:10 10° 343° (NNW) 2,319 7.1 -8.2°
Sets 13:43:29 0° 345° (NNW) 3,245 7.8 -8.7°
